Location: Dead Woman Crossing
(43.5369°N, 106.3228°W)
Time: 13:35:32
(UTC+00:00)

QB50P2 - Pass Details

Date: 02 July 2022
Orbit: 590 x 605 km, 97.9° (Epoch: 18 August)

Event Time Altitude Azimuth Distance (km) Brightness Sun altitude
Rises 08:18:48 0° 16° (NNE) 2,862 ? -21.6°
Reaches altitude 10° 08:21:00 10° 19° (NNE) 1,956 ? -21.4°
Maximum altitude 08:25:13 64° 101° (E) 674 ? -21.2°
Enters shadow 08:26:01 51° 152° (SSE) 760 ? -21.1°
